Regional Weather Roundup
Issued by NWS Little Rock, AR

Home | Current Version | Previous Version | Graphics & Text | Print | Product List | Glossary On
Versions: 1 2 3 4 5 6 7 8 9 10 11 12 13 14 15 16 17 18 19 20 21 22 23 24 25 26 27 28 29 30 31 32 33 34 35 36 37 38 39 40 41 42 43 44 45 46 47 48 49 50
000
ASUS44 KLZK 060505
RWRLZK

WEATHER ROUNDUP FOR ARKANSAS
NATIONAL WEATHER SERVICE LITTLE ROCK AR
1100 PM CST FRI FEB 05 2016

NOTE: "FAIR" INDICATES FEW OR NO CLOUDS BELOW 12,000 FEET WITH NO
SIGNIFICANT WEATHER AND/OR OBSTRUCTIONS TO VISIBILITY.

ARZ001-003-010-029-060600-
NORTHWEST ARKANSAS

CITY           SKY/WX    TMP DP  RH WIND       PRES   REMARKS
FAYETTEVILLE   PTCLDY    27  21  78 CALM      30.32R
FORT SMITH     PTCLDY    39  19  44 CALM      30.33S
HARRISON       CLEAR     36  14  40 CALM      30.31S
BENTONVILLE    PTCLDY   N/A N/A N/A S5        30.30S
ROGERS         PTCLDY    36  17  46 SE8       30.30S
SILOAM SPGS    CLOUDY    37  14  38 SE7       30.30S
HIGHFILL       CLEAR     36  18  48 S5        30.30R
$$

ARZ004-005-016-060600-
NORTH CENTRAL ARKANSAS

CITY           SKY/WX    TMP DP  RH WIND       PRES   REMARKS
BATESVILLE     CLEAR     43  18  36 S6        30.37R
FLIPPIN        CLEAR     36  16  44 CALM      30.31S
MTN HOME       CLEAR     39  15  37 S5        30.32S
$$

ARZ040-041-060600-
WEST CENTRAL ARKANSAS

CITY           SKY/WX    TMP DP  RH WIND       PRES   REMARKS
MENA           CLEAR     32  23  69 CALM      30.34S
MOUNT IDA      PTCLDY    30  19  63 CALM      30.32S
$$

ARZ009-017-025-026-028-060600-
NORTHEAST ARKANSAS

CITY           SKY/WX    TMP DP  RH WIND       PRES   REMARKS
CORNING        FAIR      36  28  75 SW8       30.36S
JONESBORO      CLEAR     33  26  75 CALM      30.37S
NEWPORT        PTCLDY    35  27  73 S7        30.38S WCI  29
WALNUT RIDGE   CLEAR     36  25  64 SW6       30.37R
BLYTHEVILLE    CLEAR     38  27  64 SW7       30.38R
$$

ARZ022-023-033-042-044-060600-
CENTRAL ARKANSAS

CITY           SKY/WX    TMP DP  RH WIND       PRES   REMARKS
LITTLE ROCK    MOCLDY    34  25  69 SE3       30.38S
N LITTLE ROCK  MOCLDY    41  23  49 S6        30.38S
JACKSONVILLE   CLEAR     29  22  76 CALM      30.37R
SEARCY         CLEAR     30  26  85 CALM      30.39S
HOT SPRINGS    PTCLDY    33  22  63 CALM      30.36S
RUSSELLVILLE   PTCLDY    32  23  69 SE3       30.35R
CLINTON        FAIR      27  23  86 CALM      30.38S
$$

ARZ036-060600-
EAST ARKANSAS

CITY           SKY/WX    TMP DP  RH WIND       PRES   REMARKS
WEST MEMPHIS   CLEAR     35  26  69 S5        30.38R WCI  31
$$

ARZ050-053-066-070-073-060600-
SOUTHWEST ARKANSAS

CITY           SKY/WX    TMP DP  RH WIND       PRES   REMARKS
ARKADELPHIA    FAIR      30  29  96 CALM      30.39S
CAMDEN         CLEAR     28  23  80 CALM      30.39R
TEXARKANA      CLEAR     43  18  36 SE5       30.35F
EL DORADO      CLOUDY    35  26  69 CALM      30.38S
DE QUEEN       CLOUDY    30  27  88 CALM      30.34S
$$

ARZ056-057-069-060600-
SOUTHEAST ARKANSAS

CITY           SKY/WX    TMP DP  RH WIND       PRES   REMARKS
PINE BLUFF     PTCLDY    37  25  61 CALM      30.39R
STUTTGART      CLEAR     43  27  52 S5        30.38S
MONTICELLO     CLOUDY    39  26  59 SE3       30.39R

$$





USA.gov is the U.S. government's official web portal to all federal, state and local government web resources and services.